Location: Vigo di Fassa
(46.4167°N, 11.6667°E)
Time: 07:25:25
(UTC+00:00)

Meteor 1-5 Rocket - Pass Details

Date: 03 March 2021
Orbit: 790 x 914 km, 81.2° (Epoch: 18 April)

Event Time Altitude Azimuth Distance (km) Brightness Sun altitude
Rises 18:30:24 0° 182° (S) 3,284 7.2 -15.9°
Reaches altitude 10° 18:32:44 10° 180° (S) 2,368 6.5 -16.3°
Maximum altitude 18:38:03 70° 98° (E) 865 4.0 -17.2°
Drops below altitude 10° 18:43:33 10° 15° (NNE) 2,452 6.6 -18.2°
Sets 18:46:00 0° 13° (NNE) 3,410 7.3 -18.6°
